Home   Weather   Choloma   Past weeks

Flag for Honduras Past Weather in Choloma, Honduras — Yesterday and Last 2 Weeks

Now
82 °F

Passing clouds.


Feels Like: 91 °F
Forecast: N/A
Wind: 12 mph from North

Location: La Mesa San Pedro Sula

Current Time: Jan 19, 2017 at 5:53:22 pm

Latest Report: Jan 19, 2017 at 5:00 pm


Visibility: N/A

Pressure: 29.86 "Hg

Humidity: 84%

Dew Point: 77 °F

Location of CholomaLocation

Past Weather in Choloma — Graph

°F

Choloma Temperature Yesterday

Maximum temperature yesterday: 88 °F (at 2:00 pm)
Minimum temperature yesterday: 70 °F (at 2:00 am)
Average temperature yesterday: 77 °F

High & Low Weather Summary for the Past Weeks

 TemperatureHumidityPressure
High91 °F (Jan 6, 2:00 pm)100% (Jan 4, 7:00 pm)30.36 "Hg (Jan 4, 7:00 pm)
Low64 °F (Jan 9, 12:00 am)52% (Jan 6, 2:00 pm)29.77 "Hg (Jan 6, 3:00 pm)
Average75 °F91%30.04 "Hg
* Reported Jan 4 4:00 pm — Jan 19 4:00 pm, Choloma, Weather by CustomWeather, © 2017

Note: Actual official high and low records may vary slightly from our data, if they occured in-between our weather recording intervals... More about our weather records

Advertising

Choloma Weather History for the Previous 24 Hours

Scroll right to see more
 ConditionsComfort  
Time TempWeatherWind HumidityBarometerVisibility
4:00 pm
Thu, Jan 19
86 °FPassing clouds.12 mph75%29.86 "HgN/A
3:00 pm88 °FScattered clouds.9 mph62%29.86 "HgN/A
2:00 pm88 °FScattered clouds.5 mph59%29.86 "HgN/A
1:00 pm88 °FScattered clouds.7 mph62%29.89 "HgN/A
12:00 pm86 °FPassing clouds.5 mph70%29.95 "HgN/A
11:00 am84 °FPassing clouds.2 mph74%29.98 "HgN/A
10:00 am81 °FPassing clouds.5 mph84%30.01 "HgN/A
9:00 am79 °FPassing clouds.5 mph89%30.01 "HgN/A
8:00 am75 °FPassing clouds.5 mph94%29.98 "HgN/A
7:00 am72 °FScattered clouds.2 mph100%29.98 "HgN/A
6:00 am70 °FPassing clouds.3 mph100%29.95 "HgN/A
5:00 am72 °FPassing clouds.2 mph100%29.95 "HgN/A
4:00 am72 °FPassing clouds.5 mphN/AN/AN/A
3:00 am73 °FPassing clouds.3 mphN/AN/AN/A
2:00 am73 °FPassing clouds.6 mph100%29.95 "HgN/A
1:00 am73 °FPassing clouds.3 mph100%29.98 "HgN/A
12:00 am75 °FPassing clouds.2 mph94%29.98 "HgN/A
11:00 pm
Wed, Jan 18
75 °FPassing clouds.3 mph94%29.98 "HgN/A
10:00 pm75 °FPassing clouds.5 mph94%30.01 "HgN/A
9:00 pm75 °FPassing clouds.No wind94%30.01 "HgN/A
8:00 pm75 °FPassing clouds.No wind94%29.98 "HgN/A
7:00 pm75 °FPassing clouds.7 mph94%29.98 "HgN/A
6:00 pm79 °FPassing clouds.9 mph84%29.95 "HgN/A
5:00 pm82 °FPassing clouds.12 mph74%29.95 "HgN/A
Weather by CustomWeather, © 2017

See weather overviewHow to use our weather pages